CST,Max TemperatureF,Mean TemperatureF,Min TemperatureF,Max Dew PointF,MeanDew PointF,Min DewpointF,Max Humidity, Mean Humidity, Min Humidity, Max Sea Level PressureIn, Mean Sea Level PressureIn, Min Sea Level PressureIn, Max VisibilityMiles, Mean VisibilityMiles, Min VisibilityMiles, Max Wind SpeedMPH, Mean Wind SpeedMPH, Max Gust SpeedMPH,PrecipitationIn, CloudCover, Events, WindDirDegrees
2013-2-1,7,-7,-21,3,-10,-25,88,79,69,30.47,30.29,30.14,,,,17,7,21,0.01,,,187
2013-2-2,19,9,-1,14,3,-4,92,86,79,30.28,30.18,30.02,,,,33,12,41,0.04,,,62
2013-2-3,13,9,4,7,5,1,88,81,73,30.22,30.13,30.04,,,,23,10,26,0.05,,,37
2013-2-4,27,11,-6,23,5,-10,91,79,67,30.18,29.99,29.69,,,,32,11,41,0.00,,,258
2013-2-5,35,22,8,30,14,5,92,83,73,30.14,29.98,29.69,,,,26,12,31,0.04,,,348
2013-2-6,28,19,9,24,17,6,96,89,81,30.12,30.00,29.89,,,,13,7,15,0.00,,,151
2013-2-7,23,20,17,22,17,14,100,92,84,30.38,30.28,30.13,,,,17,9,21,0.00,,,349
2013-2-8,25,16,7,21,16,6,100,91,81,30.38,30.25,30.06,,,,29,14,36,0.00,,,161
2013-2-9,34,24,14,30,25,15,100,91,82,30.04,29.94,29.81,,,,14,8,16,0.20,,,152
2013-2-10,31,28,24,30,26,23,100,96,92,29.79,29.61,29.49,,,,36,20,44,1.34,,,50
2013-2-11,24,21,17,22,16,12,100,87,73,30.11,30.00,29.74,,,,36,19,43,4.01,,,322
2013-2-12,31,24,17,22,18,14,84,73,62,30.03,29.91,29.84,,,,22,11,31,0.02,,,283
2013-2-13,35,30,25,31,26,22,100,85,69,29.84,29.71,29.59,,,,23,13,26,0.02,,,293
2013-2-14,26,14,2,24,11,-1,96,85,73,30.38,30.13,29.84,,,,24,13,30,0.03,,,346
2013-2-15,17,6,-5,10,2,-5,96,85,73,30.48,30.43,30.35,,,,13,6,15,0.00,,,333
2013-2-16,18,8,-3,14,6,-5,92,86,79,30.34,30.19,30.06,,,,18,10,20,0.00,,,170
2013-2-17,32,21,10,27,18,8,100,92,84,30.04,29.75,29.57,,,,23,12,29,0.00,,,173
2013-2-18,35,18,1,31,9,-4,100,88,76,30.22,29.89,29.55,,,,40,27,45,0.00,,,338
2013-2-19,1,-7,-16,-4,-13,-18,87,76,65,30.64,30.47,30.24,,,,31,21,38,0.00,,,345
2013-2-20,2,-10,-23,-4,-13,-28,91,82,72,30.64,30.58,30.50,,,,12,6,14,0.00,,,171
2013-2-21,14,3,-9,9,0,-11,92,83,73,30.50,30.40,30.23,,,,12,6,13,0.00,,,137
2013-2-22,20,16,12,13,10,7,88,81,73,30.20,30.08,30.00,,,,21,11,23,0.05,,,341
2013-2-23,20,8,-5,12,3,-5,100,84,67,30.04,29.98,29.95,,,,8,3,9,0.00,,,186
2013-2-24,23,9,-6,17,6,-8,100,87,74,30.17,30.12,30.04,,,,12,4,14,0.00,,,171
2013-2-25,25,16,6,21,16,5,100,92,84,30.20,30.14,30.11,,,,14,6,16,0.00,,,199
2013-2-26,24,19,14,22,18,12,100,94,88,30.14,30.10,30.08,,,,17,8,21,0.00,,,163
2013-2-27,28,21,13,23,18,10,96,87,78,30.25,30.18,30.12,,,,29,18,33,0.00,,,345
2013-2-28,25,19,12,20,17,11,92,83,74,30.37,30.31,30.25,,,,21,14,23,0.00,,,356